Location: *
(38.4502°S, 157.0027°W)
Time: 20:18:54
(UTC+00:00)

Daily predictions for brighter satellites

Satellite Brightness Start Highest point End
(mag) Time Altitude Azimuth Time Altitude Azimuth Time Altitude Azimuth
CZ-4C R/B 3.9 13:25:54 40° SSE 13:25:54 40° SSE 13:30:10 10° SSE
CENTAUR R/B 3.3 13:44:15 61° SE 13:44:15 61° SE 13:49:55 10° SE
Lacrosse 5 rocket 4.2 13:57:47 15° ENE 13:57:47 15° ENE 13:58:42 10° ENE
SL-16 R/B 3.1 13:53:11 10° SSE 13:58:09 55° SE 13:58:09 55° SE
Cosmos 1975 4.4 14:38:19 16° NNE 14:40:57 34° E 14:44:38 10° SSE
Cosmos 614 Rocket 4.0 14:43:36 62° N 14:43:36 62° N 14:47:48 10° NNE
Cosmos 2228 Rocket 4.4 14:38:54 10° S 14:43:18 41° ESE 14:47:35 10° NNE
In-Cosmos 22 4.0 14:39:12 10° S 14:44:36 84° E 14:49:54 10° N
Timation 2 Rocket 3.9 14:50:56 57° WSW 14:51:06 57° WSW 14:57:03 10° SSE
NOSS 3-2 (A) 4.3 14:49:02 44° WNW 14:51:34 57° SW 14:59:26 10° SSE
SL-8 R/B 4.4 14:50:47 41° S 14:51:46 47° SSE 14:56:25 10° E
Cosmos 1655 Rocket 4.0 14:47:39 10° SSW 14:53:53 56° W 15:00:00 10° NNW
ARGOS 3.0 14:49:14 10° NNE 14:54:36 83° WNW 15:00:05 10° SSW
Meteor 2-10 4.1 14:52:54 36° NNW 14:55:20 77° W 15:00:57 10° S
Meteor 1-23 Rocket 4.4 14:50:10 10° S 14:56:04 78° E 15:01:52 10° NNE
Cosmos 1340 4.4 14:54:42 10° NNE 14:57:46 29° E 15:00:52 10° SSE
Meteor 1-13 Rocket 4.1 14:52:38 10° SSW 14:58:05 58° W 15:03:31 10° N
ARIANE 5 R/B 2.4 14:53:51 10° N 14:58:58 65° WNW 15:04:06 10° SSW
Cosmos 1269 Rocket 3.9 15:04:21 10° SSW 15:09:45 88° WNW 15:15:04 10° NNE
USA 238 DEB 4.3 15:02:31 10° NNW 15:10:25 69° ENE 15:17:56 10° SE
USA 238 4.3 15:02:39 10° NNW 15:10:34 68° ENE 15:18:04 10° SE
DELTA 2 R/B (1) 3.5 15:10:18 45° W 15:12:06 85° S 15:17:43 10° E
CZ-4C R/B 4.2 15:11:01 21° SW 15:12:09 22° SW 15:17:29 10° S
Cosmos 2285 Rocket 4.4 15:11:00 10° SSW 15:17:28 68° ESE 15:23:49 10° NNE
Cosmos 1844 Rocket 4.2 15:19:02 19° SW 15:19:02 19° SW 15:22:12 10° S
DMSP B5D2-2 4.2 15:13:10 10° SSE 15:18:32 79° ENE 15:23:47 10° N
Cosmos 1633 Rocket 3.0 15:14:53 10° N 15:19:19 88° E 15:23:49 10° S
NOAA 12 4.1 15:15:06 10° N 15:20:15 59° WNW 15:25:31 10° SSW
Milstar 3 Cent rocket 4.4 15:13:31 12° NW 15:21:07 27° N 15:26:17 10° ENE
Cosmos 220 Rocket 4.0 15:27:46 18° SSW 15:30:42 52° WNW 15:34:45 10° N
SeaSat 1 2.4 15:26:15 10° NNE 15:31:07 63° WNW 15:36:04 10° SSW
Lacrosse 5 rocket 2.3 15:32:47 29° WNW 15:32:59 29° WNW 15:36:44 10° N
CENTAUR R/B 4.0 15:31:26 21° WSW 15:33:56 25° SW 15:39:29 10° S
Cosmos 1140 Rocket 4.0 15:29:34 10° S 15:34:42 60° ESE 15:39:47 10° NNE
S3M 4.3 15:28:43 10° N 15:35:02 72° E 15:41:29 10° S
Cosmos 1943 Rocket 4.3 15:32:32 10° NNE 15:37:19 29° ENE 15:42:07 10° SE
Cosmos 1805 3.8 15:37:04 32° W 15:37:25 33° WSW 15:40:54 10° SSW
CZ-2D R/B 4.0 15:34:00 10° NNW 15:38:03 39° W 15:42:11 10° SSW
SL-16 R/B 3.8 15:38:09 10° SSW 15:42:21 19° WSW 15:43:13 19° WSW
PSLV R/B 3.4 15:39:20 10° N 15:43:27 69° W 15:47:38 10° SSW
BREEZE-M DEB (TANK) 3.2 15:36:25 10° SW 15:44:55 84° NW 15:47:49 10° NE
Cosmos 407 Rocket 4.4 15:40:26 10° S 15:45:31 50° ESE 15:50:35 10° NE
BREEZE-M DEB (TANK) 4.2 15:43:20 14° SW 15:46:13 55° SE 15:55:59 10° ENE
BREEZE-M DEB (TANK) 3.4 15:45:50 24° W 15:47:35 41° SW 15:50:00 10° SE
SMAP 3.5 15:44:20 10° NNE 15:48:58 68° ESE 15:53:41 10° S
Cosmos 1023 Rocket 4.5 15:45:03 10° SSW 15:50:12 89° ESE 15:55:21 10° NNE
Cosmos 1862 Rocket 3.8 15:47:49 10° SSW 15:52:12 49° W 15:56:31 10° NNW
[s.n.70599] 3.6 15:51:04 21° SW 15:52:12 32° S 15:54:35 10° ESE
GEOS 3 Rocket 4.1 15:49:04 10° SSE 15:53:59 42° SW 15:58:47 11° WNW
ASTEX 1 4.0 15:54:52 10° SSE 15:59:47 63° E 16:04:40 10° N
Cosmos 2315 Rocket 4.3 15:53:42 10° N 15:59:56 75° E 16:06:18 10° S
SL-4 R/B 2.8 15:57:11 10° NNW 16:00:58 49° NE 16:05:02 10° ESE
Cosmos 1833 Rocket 2.7 15:56:00 10° SSW 16:01:43 86° WNW 16:07:22 10° NNE
Cosmos 1386 Rocket 4.4 15:57:34 10° SSW 16:03:35 62° W 16:09:30 10° N
Cosmos 1470 Rocket 3.9 16:00:27 10° NNW 16:04:46 46° W 16:09:10 10° S
Okean 1-7 2.9 16:03:02 10° SSW 16:07:24 73° W 16:11:40 10° N
BREEZE-M R/B 3.9 16:06:31 10° SW 16:09:01 51° SE 16:14:26 10° ENE
Cosmos 1315 Rocket 4.4 16:09:44 10° S 16:13:35 39° ESE 16:17:22 10° NNE
Cosmos 2082 Rocket 3.8 16:10:40 10° S 16:15:52 36° ESE 16:21:02 10° NE
Cosmos 1766 3.7 16:12:56 10° NNW 16:16:25 36° WSW 16:19:58 10° S
Cosmos 1975 4.5 16:14:42 10° WNW 16:17:02 15° WSW 16:19:22 10° SW
Cosmos 2278 Rocket 2.2 16:12:38 10° NNW 16:18:16 68° WSW 16:23:59 10° SSE
Cosmos 1709 Rocket 4.0 16:12:02 10° S 16:18:21 84° W 16:24:30 10° N
Cosmos 1400 Rocket 3.7 16:17:20 10° SW 16:20:31 25° W 16:23:40 10° NNW
CZ-4B R/B 3.9 16:18:28 10° NNE 16:22:32 88° ESE 16:26:30 10° SSW
BREEZE M DEB (TANK) 4.2 16:19:46 10° WSW 16:22:48 29° S 16:29:41 10° ESE
Okean 2 3.5 16:19:28 10° SSW 16:23:29 54° W 16:27:28 10° N
Cosmos 2251 Rocket 3.6 16:19:24 10° SSW 16:24:49 75° WNW 16:30:08 10° N
EXPRESS MD2 1.8 16:23:08 10° SW 16:25:22 89° WNW 16:27:47 10° NE
